Regional Weather Roundup
Issued by NWS

Home | Current Version | Previous Version | Graphics & Text | Print | Product List | Glossary On
Versions: 1 2 3 4 5 6 7 8 9 10 11 12 13 14 15 16 17 18 19 20 21 22 23 24 25 26 27 28 29 30 31 32 33 34 35 36 37 38 39 40 41 42 43 44 45 46 47 48 49 50
000
ASUS43 KOAX 211902
RWRNE

WEATHER ROUNDUP FOR NEBRASKA
NATIONAL WEATHER SERVICE OMAHA NE
100 PM CST FRI NOV 21 2014

NOTES: SATELLITE DATA IS BEING USED TO AUGMENT CLOUD COVER ABOVE
       12000 FEET.
       "FAIR" INDICATES FEW OR NO CLOUDS BELOW 12,000 FEET WITH NO
       SIGNIFICANT WEATHER AND/OR OBSTRUCTIONS TO VISIBILITY.

  * THESE STATIONS DO NOT REPORT WEATHER SUCH AS RAIN...SNOW OR FOG.

NEZ001>004-019>022-054>056-212000-
NEBRASKA PANHANDLE

CITY           SKY/WX    TMP DP  RH WIND       PRES   REMARKS
SCOTTSBLUFF    PTSUNNY   53  23  31 W8        29.89F
ALLIANCE       PTSUNNY   52  21  29 W15       29.88F
CHADRON        PTSUNNY   47  30  51 N5        29.86F
KIMBALL        PTSUNNY   55  20  25 W6        29.89F
SIDNEY         MOSUNNY   58  20  22 NW7       29.91F
$$

NEZ057>060-069>072-079>082-212000-
SOUTHWEST NEBRASKA

CITY           SKY/WX    TMP DP  RH WIND       PRES   REMARKS
NORTH PLATTE   PTSUNNY   48  29  47 S10       29.95F
IMPERIAL       MOSUNNY   52  28  39 SW7       29.93F
MCCOOK         MOSUNNY   51  31  46 S10       29.97F
$$

NEZ005>010-023>029-035>040-094-212000-
NORTH CENTRAL NEBRASKA

CITY           SKY/WX    TMP DP  RH WIND       PRES   REMARKS
VALENTINE      PTSUNNY   46  30  53 SW9       29.85F
AINSWORTH      PTSUNNY   45  29  53 SW14      29.87F
BROKEN BOW     PTSUNNY   48  31  51 S12       29.95F
ORD            CLOUDY    46  29  51 S16       29.96F
$$

NEZ041-046>049-061>064-073>077-083>087-212000-
SOUTH CENTRAL NEBRASKA

CITY           SKY/WX    TMP DP  RH WIND       PRES   REMARKS
GRAND ISLAND   PTSUNNY   40  24  53 S10       30.04F WCI  33
AURORA         PTSUNNY   39  26  60 S5        30.05F
HASTINGS       PTSUNNY   44  24  45 SW9       30.03F
KEARNEY *      CLOUDY    39  25  56 SE13      30.03F WCI  32
YORK           PTSUNNY   37  27  65 S10       30.06F WCI  30
$$

NEZ011>018-030>034-042>045-212000-
NORTHEAST NEBRASKA

CITY           SKY/WX    TMP DP  RH WIND       PRES   REMARKS
NORFOLK        CLOUDY    33  25  72 S15       30.02F WCI  23
ALBION         CLOUDY    38  26  61 S14G21    30.01F WCI  29
BLAIR          PTSUNNY   36  24  61 S16       30.09F WCI  26
COLUMBUS *     CLOUDY    34  25  69 S10       30.07F WCI  26
FREMONT        PTSUNNY   34  24  68 S12       30.09F WCI  25
TEKAMAH        MOSUNNY   38  24  57 S17       30.09F WCI  28
$$

NEZ050>053-065>068-078-088>093-212000-
SOUTHEAST NEBRASKA

CITY           SKY/WX    TMP DP  RH WIND       PRES   REMARKS
LINCOLN        PTSUNNY   40  25  55 S9        30.10F WCI  34
OMAHA EPPLEY   PTSUNNY   35  23  61 S13       30.13F WCI  26
BEATRICE       MOSUNNY   43  26  52 S3        30.09F
FALLS CITY     CLOUDY    42  26  53 SE13      30.12F
NEBRASKA CITY  PTSUNNY   37  20  50 SE8       30.12F WCI  31
$$

NEZ044-045-051>053-067-212000-
OMAHA AREA

CITY           SKY/WX    TMP DP  RH WIND       PRES   REMARKS
OMAHA EPPLEY   PTSUNNY   35  23  61 S13       30.13F WCI  26
BLAIR          PTSUNNY   36  24  61 S16       30.09F WCI  26
FREMONT        PTSUNNY   34  24  68 S12       30.09F WCI  25
OFFUTT AFB     PTSUNNY   37  23  56 SE10      30.11F WCI  30
WAHOO          FAIR      34  23  64 S12       30.09F WCI  25
$$


USA.gov is the U.S. government's official web portal to all federal, state and local government web resources and services.